Theta_e
313 314 315 315 315 316 317 317 318 319 319 320 321 322 323 325 329 329 335 339 338 338 338 340 341 346 351 351 347 348 350 354 356 346 345 346 341 341 341 347 352 353 350 347 346
313 313 314 314 315 315 316 317 318 318 319 320 321 322 322 323 330 335 338 339 338 337 338 339 346 354 352 348 347 350 356 354 350 346 345 343 343 342 343 350 351 350 347 346 346
312 313 313 313 314 315 315 316 317 318 318 319 320 321 321 322 327 340 340 338 338 339 339 340 340 354 354 347 347 347 351 348 348 347 346 346 345 344 343 350 349 347 346 346 346
313 313 313 313 314 314 315 316 316 317 318 319 320 321 320 322 337 344 343 341 340 340 340 346 343 353 346 350 345 348 347 347 347 348 346 345 347 346 345 348 348 346 345 345 345
313 313 314 314 314 314 315 315 316 317 318 318 319 320 319 323 332 338 341 343 341 341 340 343 342 351 351 350 353 350 351 351 351 349 343 344 342 346 345 350 348 345 344 344 344
314 314 314 314 314 314 315 315 315 316 317 318 319 319 318 327 337 340 340 344 343 341 340 342 347 350 346 346 353 347 350 350 350 347 343 341 343 346 345 348 347 345 344 344 344
314 314 314 314 315 315 315 315 315 316 316 317 318 317 317 328 335 341 344 343 342 340 340 345 352 349 350 350 351 349 353 350 347 347 345 347 343 345 345 346 346 345 345 345 344
313 313 314 314 314 315 315 315 315 315 316 316 317 317 319 334 334 334 336 343 340 340 342 347 352 351 350 350 350 352 352 351 348 349 348 349 347 347 346 345 345 345 345 345 346
313 313 313 313 314 315 315 315 315 316 316 316 317 318 326 333 334 334 335 344 341 341 343 348 351 350 349 350 352 349 356 351 350 348 348 348 350 349 348 347 346 345 344 345 345
314 314 314 314 314 314 315 315 316 316 315 316 317 324 329 334 333 333 337 344 341 342 345 349 350 347 346 348 358 355 353 350 351 348 345 349 346 346 350 349 348 346 345 344 344
313 314 314 314 314 314 315 316 320 327 317 323 326 324 331 332 334 335 340 343 341 343 347 349 348 351 348 347 349 347 350 350 348 348 349 346 344 347 348 352 350 349 347 345 344
313 313 314 314 314 314 314 315 319 323 323 324 326 327 328 328 330 335 342 343 343 347 348 349 351 349 349 349 348 350 351 350 349 349 348 347 348 347 346 353 353 351 349 348 345
313 313 314 314 315 315 320 318 318 321 322 324 324 327 329 329 330 339 343 343 345 350 350 348 350 349 350 349 351 347 350 349 350 348 349 348 349 349 342 344 353 354 351 350 348
313 313 313 315 314 319 323 322 323 322 323 326 324 325 327 330 331 336 342 344 345 347 347 347 348 345 348 349 346 350 347 349 350 348 350 346 345 346 339 339 339 352 354 352 351
313 313 313 312 315 317 322 323 322 323 327 330 326 328 328 331 331 333 334 345 346 345 345 349 347 346 346 346 348 351 349 348 347 348 341 343 341 342 340 339 339 339 348 352 353
313 313 313 311 314 317 317 321 322 325 328 330 328 327 327 329 331 332 335 338 344 345 345 344 341 345 346 348 348 347 349 347 346 345 346 344 344 345 343 340 341 345 348 349 349
313 313 312 312 315 321 322 322 323 326 329 329 328 328 328 329 330 331 334 338 340 342 343 344 343 341 342 348 348 350 351 348 347 343 345 344 345 342 341 341 344 344 347 347 348
312 313 314 314 315 315 319 322 325 327 325 327 328 327 327 328 330 331 333 337 338 339 341 344 350 347 346 345 347 347 347 344 356 357 353 345 347 346 343 340 345 346 346 345 345
312 313 315 316 315 315 320 322 325 327 328 328 328 328 327 328 330 331 332 335 337 337 340 341 341 345 345 345 343 346 347 346 345 349 351 353 348 345 342 340 344 346 348 348 348
310 312 315 318 315 318 322 321 322 324 324 325 325 330 330 327 328 331 332 334 338 337 337 340 342 346 346 344 344 346 344 346 349 357 357 353 350 347 342 342 342 344 349 350 351
312 325 324 322 322 319 322 322 322 323 323 324 325 328 328 328 329 330 333 334 335 338 337 338 339 347 346 348 347 346 345 342 340 344 351 358 352 344 342 341 344 344 349 349 350
315 324 322 323 320 320 320 321 322 322 323 323 326 326 325 327 329 329 331 334 336 337 338 339 338 346 348 344 343 345 345 344 338 341 341 339 341 343 341 341 345 346 348 348 348
313 322 325 323 324 323 323 322 322 322 323 323 324 326 325 324 326 330 331 333 336 337 339 339 342 352 348 347 344 345 344 342 336 335 337 338 337 342 342 342 346 347 348 349 353
317 328 326 326 325 325 325 324 323 323 323 324 324 325 324 324 323 329 329 332 332 332 333 334 336 344 350 352 347 345 343 340 337 337 337 335 335 344 343 346 351 354 354 353 354
322 325 323 328 326 326 325 324 324 326 325 324 325 324 322 323 326 327 328 329 332 330 333 331 334 337 334 338 343 344 342 341 339 334 332 332 337 349 353 353 355 354 356 355 353
319 318 317 318 324 324 325 325 325 325 326 327 325 324 322 322 326 327 328 329 332 332 332 329 332 335 333 331 330 342 341 340 336 336 333 332 339 346 352 353 354 356 353 348 346
312 317 318 319 321 322 324 327 328 327 326 326 327 326 326 326 327 329 329 328 326 328 330 328 328 332 330 332 331 330 332 334 334 333 334 334 335 337 341 353 357 351 347 344 343
Wind_Speed
11 12 13 13 13 14 14 14 14 14 14 14 14 15 15 17 16 19 21 13 9 9 9 5 9 7 4 8 9 5 2 3 5 8 7 20 15 23 20 23 12 16 34 38 37
12 13 14 14 14 15 15 15 15 14 14 14 15 16 17 20 20 23 14 14 10 11 12 8 8 6 1 8 8 10 4 5 9 8 13 16 19 22 18 23 27 34 36 40 39
13 14 14 15 15 15 15 15 15 15 14 14 15 16 17 19 22 11 11 10 9 10 10 10 7 13 16 9 8 6 7 16 29 21 24 15 20 24 23 18 32 38 41 39 39
15 15 15 16 16 16 16 16 16 15 15 15 15 16 18 16 5 5 4 5 8 10 9 10 10 7 3 6 7 5 23 27 19 9 18 8 21 15 25 25 38 40 40 39 37
16 16 16 17 17 17 16 16 16 15 15 15 15 16 17 10 19 11 7 5 10 11 12 14 15 26 13 20 31 13 14 19 30 15 16 21 18 20 25 35 38 38 36 36 34
17 18 18 18 18 18 17 17 16 15 15 15 14 16 15 8 4 11 10 10 10 12 15 14 3 19 24 20 22 8 29 33 24 10 23 21 20 26 27 37 36 37 36 35 34
18 19 19 19 19 19 18 17 16 15 15 14 14 15 17 29 6 8 11 12 9 15 17 13 8 2 28 13 38 25 22 27 14 19 7 5 12 16 34 33 33 34 35 33 33
19 19 19 19 20 20 18 17 17 14 14 13 13 13 15 20 16 17 19 10 13 13 16 15 11 11 19 8 7 3 3 6 10 8 11 11 8 19 36 34 30 33 33 33 33
20 19 19 19 20 20 19 17 16 14 13 12 10 9 16 9 18 14 17 17 17 16 16 15 8 12 15 8 6 7 5 4 6 9 4 6 2 19 38 35 28 31 33 34 33
20 19 19 18 20 20 18 16 15 15 13 11 10 8 22 17 16 17 16 17 18 14 16 20 12 6 3 4 4 6 5 6 6 2 4 7 11 10 23 33 33 32 33 35 34
20 19 19 18 18 20 17 13 8 2 13 14 11 20 24 19 17 19 17 17 20 19 8 19 5 5 8 7 10 3 2 6 15 8 4 16 5 11 17 29 30 31 34 36 36
20 19 18 17 17 17 17 13 11 16 12 21 27 31 37 32 27 24 18 20 20 10 10 4 4 9 18 16 11 5 6 13 17 17 11 14 11 13 7 24 33 34 34 35 35
20 20 18 16 16 13 12 16 9 10 9 24 31 31 35 26 30 18 22 23 12 11 11 8 3 10 14 14 4 5 10 16 15 17 18 14 6 8 11 16 31 35 39 37 40
20 20 18 16 10 10 13 13 9 7 4 9 11 26 32 31 18 21 23 20 12 12 13 8 16 11 5 7 15 4 8 25 20 15 15 22 6 6 8 9 9 31 36 39 39
20 19 16 16 11 15 8 5 5 5 4 7 13 8 27 32 12 18 22 26 15 12 4 4 1 8 13 5 4 6 15 23 20 15 6 5 5 8 10 9 8 9 19 36 38
19 19 18 14 17 9 10 3 9 1 8 3 11 10 18 24 23 25 22 23 21 14 13 1 4 5 8 19 12 13 6 15 18 7 6 3 5 5 7 8 9 11 19 16 13
19 17 21 18 14 2 6 9 1 5 8 8 8 10 16 15 17 18 13 12 10 7 13 5 4 13 25 11 11 16 10 7 4 3 2 11 6 6 14 13 15 13 22 13 14
20 18 20 22 14 13 3 2 6 11 14 6 6 11 12 13 18 17 15 14 13 13 6 13 2 11 15 8 6 7 8 5 4 1 5 6 6 4 16 5 25 27 24 17 16
21 15 21 15 15 16 4 5 7 6 9 12 14 12 9 12 9 18 19 14 14 16 13 7 10 14 4 4 7 3 6 4 7 5 5 3 7 7 12 8 8 20 21 19 17
22 19 22 9 14 22 4 6 10 11 17 20 18 5 4 15 14 13 16 17 16 18 15 16 7 6 4 7 4 3 4 3 2 5 3 8 5 5 6 13 6 9 21 20 14
18 8 2 25 17 10 6 7 10 22 24 8 18 8 10 10 10 15 14 19 17 15 19 18 11 2 3 3 4 7 5 3 3 8 6 6 6 9 21 18 10 13 30 27 20
4 4 22 29 6 7 8 10 13 22 31 20 11 8 10 12 9 7 17 18 24 19 17 15 9 4 4 5 2 6 7 9 5 5 5 4 6 24 21 24 31 22 31 29 24
12 9 15 19 4 8 10 19 22 20 21 20 14 7 9 10 7 7 10 10 24 8 15 13 11 4 5 7 7 5 12 14 7 2 8 2 6 17 16 15 28 26 31 31 34
6 3 10 19 18 11 13 14 18 29 22 26 14 4 8 8 11 7 11 7 13 6 8 2 4 6 6 9 6 13 26 23 9 6 6 4 3 3 15 11 16 27 36 33 30
3 3 10 3 6 12 14 15 18 18 20 26 3 7 9 8 8 8 10 11 4 3 2 2 1 1 4 13 24 16 10 22 21 13 6 7 1 6 13 15 22 32 34 36 37
10 8 11 19 19 14 12 17 17 20 16 7 8 9 11 9 8 8 9 8 6 1 2 3 2 5 6 6 6 25 26 26 18 19 7 8 8 6 10 24 22 27 37 38 37
16 13 11 12 10 10 10 13 15 12 20 20 8 12 12 11 10 14 19 19 9 4 5 7 4 2 5 6 8 8 8 4 4 4 4 6 7 8 7 9 27 35 40 40 34
Wind_Direction
328 328 329 327 329 326 326 326 325 327 327 323 320 316 315 307 299 286 270 246 265 275 293 279 276 277 219 83 41 294 68 228 213 143 161 117 103 109 128 132 136 182 154 151 150
326 326 326 325 324 323 322 321 321 321 321 319 316 314 315 315 308 284 254 232 251 277 275 269 316 332 93 57 25 42 313 290 261 297 135 128 132 142 121 90 107 114 134 147 153
326 324 323 320 319 319 317 317 316 315 316 314 312 312 315 321 319 281 234 225 232 262 262 246 271 118 40 322 129 197 236 238 272 241 132 149 155 150 125 123 134 137 143 153 157
322 320 317 315 316 313 313 313 312 311 311 309 308 309 313 318 294 323 315 247 221 230 233 254 277 87 359 8 333 259 243 241 277 121 145 152 118 71 134 144 142 144 150 156 161
318 316 315 314 312 310 310 309 308 307 306 305 304 306 317 303 272 277 282 249 222 220 225 247 279 97 89 315 295 237 261 288 270 258 138 117 103 103 113 135 143 147 154 161 167
315 314 313 311 309 308 307 303 303 303 301 300 299 301 307 263 237 264 274 259 231 225 233 249 272 105 120 230 206 298 307 281 295 180 130 121 121 114 122 138 141 151 162 168 173
314 314 312 311 308 304 302 300 299 298 296 295 294 295 285 259 260 269 280 271 227 217 243 280 266 63 181 228 210 161 254 274 3 353 41 51 116 125 134 141 148 158 168 175 180
314 314 313 310 307 303 299 296 294 292 289 286 286 285 265 267 265 260 243 256 250 246 246 261 285 299 226 229 202 220 193 50 330 1 5 41 146 141 144 149 157 166 174 182 186
313 314 313 311 307 303 298 293 289 283 279 275 279 269 268 270 240 232 238 235 231 239 253 252 269 264 277 278 0 22 1 74 355 354 34 79 313 156 153 156 165 171 177 185 190
312 312 312 310 307 303 300 292 282 275 268 266 237 284 255 244 234 230 235 228 232 228 241 246 246 241 348 73 192 229 65 2 243 163 19 244 242 241 176 162 168 174 179 184 192
311 311 310 307 305 304 305 303 287 252 220 215 225 215 263 302 220 231 223 214 231 229 225 235 209 107 115 133 170 305 211 264 246 255 166 232 252 261 201 171 168 173 178 185 191
308 307 308 307 301 298 295 280 238 325 293 272 263 249 262 273 274 234 208 207 228 220 225 298 170 194 140 140 167 150 77 312 310 275 209 264 235 242 225 182 175 176 178 184 188
310 308 309 306 299 291 281 273 276 330 289 280 252 242 249 254 260 197 209 211 230 217 233 185 238 182 147 162 243 70 78 286 264 279 221 326 333 267 239 132 181 180 182 183 187
309 307 310 308 292 251 274 314 316 308 291 260 212 235 237 238 262 222 211 208 234 228 234 262 180 165 189 169 151 99 287 259 262 284 198 215 235 193 167 174 171 171 182 186 187
306 304 302 304 278 273 318 8 10 270 278 229 191 172 200 211 220 228 236 205 229 240 200 218 17 4 334 212 93 166 225 244 263 271 330 260 104 261 164 193 174 144 147 193 188
301 299 292 282 272 269 275 5 326 260 245 262 154 185 181 211 222 235 224 233 218 249 257 133 147 160 231 265 128 71 346 273 260 261 273 313 354 257 180 167 129 125 108 117 129
297 290 281 268 250 278 269 280 215 231 302 202 168 165 185 196 212 224 222 212 198 209 251 109 147 280 252 238 155 120 211 264 297 333 236 349 30 235 333 151 140 135 130 139 159
297 285 271 261 242 237 284 291 225 248 237 291 202 177 200 191 205 221 233 215 196 223 227 240 175 221 235 188 205 198 235 194 86 229 274 38 325 298 316 152 131 135 136 115 121
309 294 268 253 223 198 189 225 215 218 266 337 336 174 193 203 223 202 233 225 205 204 228 229 253 186 169 353 134 240 278 234 101 0 25 331 287 320 330 353 103 117 113 105 106
320 308 266 208 183 176 204 248 249 270 298 324 312 306 250 193 201 209 213 239 207 200 213 252 270 348 60 21 355 156 247 6 61 118 171 294 263 230 290 287 282 113 118 119 118
329 309 75 162 175 182 222 233 262 270 275 268 294 310 313 318 256 209 211 225 234 206 203 222 235 312 12 106 157 328 329 286 142 140 151 164 263 244 250 233 217 151 145 137 138
336 270 149 165 160 191 234 240 255 277 289 292 272 292 293 302 312 329 223 205 208 215 218 204 209 159 197 268 163 175 257 296 147 265 234 208 244 207 224 205 182 150 147 147 144
332 282 184 181 214 229 236 240 255 262 268 274 277 226 268 293 317 326 324 305 220 191 222 215 213 123 17 355 335 298 278 258 227 190 263 287 284 183 187 198 159 150 152 138 119
316 285 233 201 232 257 263 256 244 245 257 271 285 265 298 274 283 280 304 308 62 44 82 1 158 163 180 195 171 223 249 264 211 226 245 252 331 320 167 137 114 112 115 115 111
260 341 13 322 309 305 262 274 279 277 248 246 315 296 285 289 289 293 295 304 343 125 83 176 119 80 248 171 200 227 268 267 246 228 196 260 338 76 120 121 134 130 117 100 94
359 1 331 299 293 304 295 233 256 274 282 246 185 239 268 265 267 283 300 304 270 145 142 357 287 6 325 323 324 190 207 242 245 231 236 122 67 75 71 151 140 117 101 103 106
348 339 324 295 306 308 293 315 290 276 279 284 253 203 231 257 283 302 315 309 300 305 232 160 150 155 254 303 315 298 250 291 290 63 85 100 159 93 64 104 113 114 117 119 121